Regional Weather Roundup
Issued by NWS Upton, NY

Current Version | Previous Version | Text Only | Print | Product List | Glossary On
Versions: 1 2 3 4 5 6 7 8 9 10 11 12 13 14 15 16 17 18 19 20 21 22 23 24 25 26 27
000
ASUS41 KOKX 211409
RWROKX

Regional Weather Roundup
National Weather Service New York NY
900 AM EST SUN JAN 21 2018

Note: "FAIR" indicates few or no clouds below 12,000 feet with no
significant weather and/or obstructions to visibility.

NYZ071-072-176-178-NJZ106-104-211500-
New York City Metro Area

CITY           SKY/WX    TMP DP  RH WIND       PRES   REMARKS
Central Park   FAIR      45  28  51 MISG      30.19R
Bronx Bot Gard   N/A     43  28  56 W3        30.18R
Bronx Lehman C   N/A     43  30  61 W3          N/A
LaGuardia Arpt PTSUNNY   44  29  55 NW7       30.16S
Queens College   N/A     45  30  57 NW7         N/A
Kennedy Intl   PTSUNNY   40  32  73 W7        30.18R
Breezy Point     N/A     39 N/A N/A W3          N/A
Brooklyn Coll    N/A     45  30  57 W3          N/A
Staten Island    N/A     41  30  65 W3          N/A
Newark/Liberty PTSUNNY   42  32  67 SW5       30.17R
Teterboro      FAIR      35  30  82 W3        30.16R
$$

NYZ177-179-078>081-211500-
Long Island New York

CITY           SKY/WX    TMP DP  RH WIND       PRES   REMARKS
Jones Beach      N/A     41 N/A N/A W8          N/A
Wantagh          N/A     41  32  70 W3          N/A
Matinecock Pt    N/A     41 N/A N/A SW5         N/A
Farmingdale    FAIR      38  32  79 CALM      30.17R
MacArthur/ISP  CLOUDY    41  32  70 CALM      30.16R
Shirley        FAIR      39  33  79 CALM      30.17R
Mt Sinai Harb    N/A    N/A N/A N/A W2          N/A
Westhampton    FAIR      36  31  82 CALM      30.18R
East Hampton   FAIR      41  29  62 NW6       30.16R
Southold         N/A     37  32  81 W2          N/A
Montauk          N/A     42  31  64 W5        30.17R
$$

NYZ052-065-067-211500-
Hudson Valley

CITY           SKY/WX    TMP DP  RH WIND       PRES   REMARKS
White Plains   FAIR      33  30  88 NW6       30.15R WCI  28
Larchmont Harb   N/A     39 N/A N/A W5          N/A
Croton On Huds   N/A     34 N/A N/A N1          N/A
Somers           N/A     32  28  86 N1          N/A
Brewster         N/A     28  27  93 N2          N/A
Newburgh       PTSUNNY   30  28  93 CALM      30.16R
Montgomery     FAIR      32  25  75 CALM      30.14R
Otisville        N/A     34  28  80 S3          N/A
Warwick          N/A     28  27  93 CALM        N/A
Suffern          N/A     39  30  70 CALM        N/A
Poughkeepsie   FAIR      25  22  88 CALM      30.17R
Albany         CLOUDY    38  28  67 W6        30.16R WCI  33
$$

NJZ001-105-106-008-010-013-015-019>022-104-211500-
New Jersey

CITY           SKY/WX    TMP DP  RH WIND       PRES   REMARKS
Newark/Liberty PTSUNNY   42  32  67 SW5       30.17R
Teterboro      FAIR      35  30  82 W3        30.16R
Caldwell       FAIR      32  29  88 CALM      30.18R
Somerville     FAIR      31  28  89 CALM      30.17R
Linden         FAIR      40  30  68 CALM      30.18R
Perth Amboy      N/A     37 N/A N/A W5          N/A  WCI  34
Sussex         FAIR      23  23 100 CALM      30.16R
Andover          N/A     27  26  96 CALM      30.16R
Trenton        FAIR      43  31  62 VRB3      30.18R
Millville      PTSUNNY   38  34  85 CALM      30.20R
Atlantic City  FAIR      41  30  65 SW5       30.20R
Wrightstown    FAIR      43  32  64 W5        30.16R
Toms River     FAIR      42  34  73 NW6       30.19
Belmar         FAIR      40  30  67 SW6       30.19R
$$

PAZ047>061-062-071-211500-
Eastern Pennsylvania

CITY           SKY/WX    TMP DP  RH WIND       PRES   REMARKS
Philadelphia   PTSUNNY   38  31  76 SW6       30.21R WCI  33
Allentown      FAIR      40  31  70 SW5       30.18R
Scranton       FAIR      29  27  92 CALM      30.16R FOG
$$

CTZ002-004>006-009-010-012-RIZ004-006-007-MAZ004-011-015-211500-
Southern New England

 In CT

CITY           SKY/WX    TMP DP  RH WIND       PRES   REMARKS
Bradley Intl   PTSUNNY   34  29  82 W3        30.16R
Hartford       FAIR      31  29  92 CALM      30.17R
Danbury        FAIR      27  24  89 CALM      30.17R
Wtrbury/Oxford FAIR      32  27  81 CALM      30.16R
Norwalk Harbor   N/A    N/A N/A N/A N5          N/A
Bridgeport     FAIR      35  29  78 CALM      30.18R
Meriden        FAIR      29  27  92 CALM      30.17R
New Haven      PTSUNNY   32  30  92 CALM      30.17R
Chester        FAIR      39  28  65 CALM      30.15R
Groton         FAIR      33  28  81 E3        30.16R
Willimantic    FAIR      33  28  81 CALM      30.16R

 In RI

CITY           SKY/WX    TMP DP  RH WIND       PRES   REMARKS
Providence     FAIR      37  30  75 W3        30.15R
Block Island   FAIR      40  31  70 W8        30.16R WCI  34
Westerly       FAIR      36  31  82 CALM      30.17R

In MA

CITY           SKY/WX    TMP DP  RH WIND       PRES   REMARKS
Boston         PTSUNNY   41  29  62 W8        30.12R
Worcester      FAIR      37  26  64 W8        30.10R WCI  31
Westfield      FAIR      37  29  72 CALM      30.14R
Provincetown   FAIR      40  32  73 MISG        N/A
Nantucket      FAIR      41  31  67 NW6       30.12R
$$

ANZ330-335-338-340-345-350-353-355-211500-
Coastal Marine Observations


STATION/POSITION TIME  SKY/WX   TEMP    WIND        PRES    VSBY  WAVE
                                AIR SEA DIR/SP/G                  HT/PER
                 (UTC)          (F)     (DEG/KT/KT) (MB)    (MI)  (FT/S)
NY Harb Entrance 1250            40 38  260/  8/  8 1020.9          2/ 7
20 S Fire Island 1250            41 41  280/ 10/ 10 1021.1          3/ 8
15 E Barnegat Li 1330               42                N/A           4/ 7
Hudson Canyon    1250            49 49  320/ 12/ 14 1020.6          4/ 8
Kings Point      1336            38 33  210/  3/  3 1022.3
Execution Rocks  NOT AVBL
Western LI Sound NOT AVBL
Central LI Sound 1330            36     250/  6/  6   N/A           0
Robbins Reef     1336            42     280/  8/  9 1022.0
$$


>>>>>>>>>>>>>>>>>>>>>>>>>>>> KEY <<<<<<<<<<<<<<<<<<<<<<<<<<<
>                                                          <
>     SKY/WX - Sky Condition/Present Weather               <
>     TMP    - Temperature in Fahrenheit                   <
>     DP     - Dew Point in Fahrenheit                     <
>     RH     - Relative Humidity in Percent                <
>     WIND   - Direction (from) and Speed in MPH           <
>     PRES   - Mean Sea Level Pressure (inches of Hg)      <
>     WCI    - Wind Chill Index                            <
>     VSB    - Visibility in Miles                         <
>     HX     - Heat Index                                  <
>     TC     - Temperature in Celsius                      <
>     VRB    - Varibale Wind Direction                     <
>                                                          <
>>>>>>>>>>>>>>>>>>>>>>>>>>>> KEY <<<<<<<<<<<<<<<<<<<<<<<<<<<




USA.gov is the U.S. government's official web portal to all federal, state and local government web resources and services.